GW6438 Weather Reports


time (UTC)temp
C
wind
direction
speed
KPH
gust
KPH
rain 1hr
cm
rain 24hr
cm
rain mn
cm
humidity
%
barometer
mb
20260503213028 22 12 8.0 11.3 0.00 0.00 0.00 45 1009.0
20260503211534 22 12 4.8 8.0 0.00 0.00 0.00 46 1009.1
20260503210020 22 7 6.4 12.9 0.00 0.00 0.00 45 1009.3
20260503204518 22 12 8.0 14.5 0.00 0.00 0.00 47 1009.6
20260503203014 22 32 6.4 14.5 0.00 0.00 0.00 49 1009.8
20260503201513 22 24 8.0 12.9 0.00 0.00 0.00 48 1009.9
20260503200010 21 348 3.2 12.9 0.00 0.00 0.00 52 1010.1
20260503194506 20 126 1.6 9.7 0.00 0.00 0.00 56 1010.3
20260503193005 18 213 3.2 6.4 0.00 0.00 0.00 61 1010.4
20260503191601 17 208 1.6 6.4 0.00 0.00 0.00 66 1010.5
20260503184607 17 284 0.0 3.2 0.00 0.00 0.00 67 1010.8
20260503183057 17 221 0.0 9.7 0.00 0.00 0.00 66 1010.9
20260503181556 18 24 4.8 12.9 0.00 0.00 0.00 62 1011.0
20260503180049 17 35 1.6 6.4 0.00 0.00 0.00 67 1011.0
20260503174604 16 285 0.0 0.0 0.00 0.00 0.00 70 1011.1
20260503173050 15 286 0.0 3.2 0.00 0.00 0.00 74 1011.3
20260503171548 15 200 4.8 11.3 0.00 0.00 0.00 71 1011.3
20260503081509 13 19 0.0 0.0 0.00 0.00 0.00 77 1011.1
20260503071559 15 42 0.0 0.0 0.00 0.00 0.00 73 1011.0
20260503054555 15 359 3.2 6.4 0.00 0.00 0.00 69 1010.6
20260503053054 16 33 3.2 11.3 0.00 0.00 0.00 67 1010.7
20260503051554 16 344 1.6 6.4 0.00 0.00 0.00 67 1010.7
20260503050054 16 116 4.8 9.7 0.00 0.00 0.00 67 1010.7
20260503044653 16 202 3.2 6.4 0.00 0.00 0.00 67 1010.5
20260503043052 16 134 4.8 8.0 0.00 0.00 0.00 67 1010.6
20260503041553 17 323 1.6 6.4 0.00 0.00 0.00 67 1010.5
20260503040054 17 40 0.0 4.8 0.00 0.00 0.00 64 1010.3
20260503034606 18 15 1.6 17.7 0.00 0.00 0.00 61 1010.1
20260503033055 16 314 1.6 16.1 0.00 0.00 0.00 69 1009.9
20260503031553 17 354 3.2 8.0 0.00 0.00 0.00 68 1009.8
20260503030050 20 32 0.0 0.0 0.00 0.00 0.00 59 1009.7
20260503024551 19 32 0.0 3.2 0.00 0.00 0.00 59 1009.7
20260503023048 20 15 0.0 11.3 0.00 0.00 0.00 56 1009.8
20260503021548 21 3 0.0 8.0 0.00 0.00 0.00 57 1009.8
20260503020047 20 175 0.0 4.8 0.00 0.00 0.00 58 1009.9
20260503014550 20 126 0.0 0.0 0.00 0.00 0.00 55 1010.0
20260503013042 21 10 0.0 0.0 0.00 0.00 0.00 53 1010.1
20260503011540 21 9 4.8 8.0 0.00 0.00 0.00 49 1010.1
20260503010039 21 356 0.0 4.8 0.00 0.00 0.00 50 1010.2
20260503004538 21 354 0.0 3.2 0.00 0.00 0.00 52 1010.4
20260503003047 20 11 3.2 8.0 0.00 0.00 0.00 54 1010.5
20260503001548 20 10 0.0 1.6 0.00 0.00 0.00 58 1010.6
20260503000029 20 15 4.8 8.0 0.00 0.00 0.00 57 1010.7
20260502234524 21 344 0.0 0.0 0.00 0.00 0.00 53 1010.8
20260502233023 21 233 0.0 0.0 0.00 0.00 0.00 53 1011.0
20260502231514 21 232 0.0 4.8 0.00 0.00 0.00 54 1011.1
20260502230010 22 35 3.2 6.4 0.00 0.00 0.00 49 1011.4
20260502224506 21 292 0.0 0.0 0.00 0.00 0.00 56 1011.6
20260502223010 18 293 0.0 0.0 0.00 0.00 0.00 63 1011.9
20260502221600 18 294 0.0 4.8 0.00 0.00 0.00 65 1012.1
20260502220059 19 290 6.4 8.0 0.00 0.00 0.00 59 1012.2
20260502214603 19 296 3.2 6.4 0.00 0.00 0.00 61 1012.3